Location: Binningen
(47.7924°N, 8.7261°E)
Time: 20:35:14
(UTC+00:00)

Meteor 2-10 - Pass Details

Date: 17 May 2021
Orbit: 737 x 869 km, 81.2° (Epoch: 20 June)

Event Time Altitude Azimuth Distance (km) Brightness Sun altitude
Rises 23:26:32 0° 350° (N) 3,319 8.7 -22.6°
Reaches altitude 10° 23:28:59 10° 353° (N) 2,364 7.6 -22.6°
Maximum altitude 23:34:17 67° 76° (ENE) 834 4.1 -22.6°
Enters shadow 23:35:40 47° 139° (SE) 1,014 4.3 -22.6°
